• In Deutschland
  • Länderverzeichnis
  • Für 7 Tage
  • Wassertemperatur
  • Satellitenkarten
  • Wetterkarte
  • Widgets
  • user-avatar
    Anmelden

    Stündliche Wetter Dąbrowa Górnicza

    Heute, 22 Oktober, Sonntag

    Zeit Temperatur Niederschläge Wind Luftdruck Luftfeuchtigkeit
    00:00 +9°C° 0 mm 1 m/S 737 mmHg 88%
    01:00 +9°C° 0 mm 1 m/S 737 mmHg 89%
    02:00 +9°C° 0 mm 1 m/S 737 mmHg 89%
    03:00 +9°C° 0 mm 1 m/S 737 mmHg 89%
    04:00 +8°C° 0 mm 2 m/S 736 mmHg 89%
    05:00 +8°C° 0 mm 2 m/S 736 mmHg 88%
    06:00 +8°C° 0 mm 2 m/S 736 mmHg 86%
    07:00 +8°C° 0 mm 2 m/S 736 mmHg 85%
    08:00 +9°C° 0,7 mm 2 m/S 736 mmHg 82%
    09:00 +10°C° 0,7 mm 2 m/S 736 mmHg 79%
    10:00 +12°C° 0,7 mm 2 m/S 736 mmHg 75%
    11:00 +10°C° 1,1 mm 2 m/S 736 mmHg 79%
    12:00 +10°C° 1,1 mm 3 m/S 735 mmHg 83%
    13:00 +10°C° 1,1 mm 3 m/S 735 mmHg 87%
    14:00 +10°C° 0,2 mm 3 m/S 735 mmHg 88%
    15:00 +10°C° 0,2 mm 3 m/S 735 mmHg 89%
    16:00 +10°C° 0,2 mm 3 m/S 735 mmHg 89%
    17:00 +9°C° 0,1 mm 3 m/S 735 mmHg 90%
    18:00 +9°C° 0,1 mm 2 m/S 735 mmHg 91%
    19:00 +9°C° 0,1 mm 2 m/S 735 mmHg 92%
    20:00 +9°C° 0,1 mm 2 m/S 735 mmHg 92%
    21:00 +9°C° 0,1 mm 2 m/S 735 mmHg 92%
    22:00 +10°C° 0,1 mm 1 m/S 735 mmHg 93%
    23:00 +10°C° 0,3 mm 1 m/S 735 mmHg 93%

    Morgen, 23 Oktober, Montag

    Zeit Temperatur Niederschläge Wind Luftdruck Luftfeuchtigkeit
    00:00 +9°C° 0,3 mm 2 m/S 735 mmHg 93%
    01:00 +9°C° 0,3 mm 2 m/S 735 mmHg 93%
    02:00 +8°C° 0,2 mm 2 m/S 734 mmHg 93%
    03:00 +8°C° 0,2 mm 2 m/S 734 mmHg 92%
    04:00 +8°C° 0,2 mm 2 m/S 734 mmHg 91%
    05:00 +8°C° 0,2 mm 3 m/S 734 mmHg 90%
    06:00 +8°C° 0,2 mm 3 m/S 734 mmHg 89%
    07:00 +8°C° 0,2 mm 3 m/S 734 mmHg 88%
    08:00 +8°C° 0,2 mm 3 m/S 734 mmHg 86%
    09:00 +7°C° 0,2 mm 4 m/S 734 mmHg 84%
    10:00 +8°C° 0,2 mm 4 m/S 734 mmHg 83%
    11:00 +8°C° 0,3 mm 4 m/S 734 mmHg 82%
    12:00 +8°C° 0,3 mm 4 m/S 734 mmHg 82%
    13:00 +8°C° 0,3 mm 4 m/S 734 mmHg 82%
    14:00 +8°C° 0,5 mm 5 m/S 734 mmHg 82%
    15:00 +8°C° 0,5 mm 5 m/S 734 mmHg 83%
    16:00 +8°C° 0,5 mm 5 m/S 735 mmHg 84%
    17:00 +8°C° 0,7 mm 5 m/S 735 mmHg 85%
    18:00 +8°C° 0,7 mm 5 m/S 735 mmHg 87%
    19:00 +8°C° 0,7 mm 5 m/S 736 mmHg 88%
    20:00 +8°C° 0,8 mm 5 m/S 736 mmHg 89%
    21:00 +7°C° 0,8 mm 5 m/S 736 mmHg 89%
    22:00 +7°C° 0,8 mm 5 m/S 737 mmHg 90%
    23:00 +7°C° 0,3 mm 5 m/S 737 mmHg 90%

    übermorgen, 24 Oktober, Dienstag

    Zeit Temperatur Niederschläge Wind Luftdruck Luftfeuchtigkeit
    00:00 +7°C° 0,3 mm 4 m/S 738 mmHg 90%
    01:00 +7°C° 0,3 mm 4 m/S 738 mmHg 90%
    02:00 +7°C° 0,1 mm 4 m/S 738 mmHg 90%
    03:00 +7°C° 0,1 mm 4 m/S 739 mmHg 90%
    04:00 +7°C° 0,1 mm 4 m/S 739 mmHg 90%
    05:00 +8°C° 0 mm 3 m/S 740 mmHg 89%
    06:00 +7°C° 0 mm 3 m/S 740 mmHg 89%
    07:00 +7°C° 0 mm 3 m/S 741 mmHg 89%
    08:00 +8°C° 0 mm 3 m/S 741 mmHg 87%
    09:00 +8°C° 0 mm 3 m/S 742 mmHg 86%
    10:00 +8°C° 0 mm 2 m/S 742 mmHg 84%
    11:00 +9°C° 0 mm 2 m/S 742 mmHg 81%
    12:00 +9°C° 0 mm 2 m/S 742 mmHg 77%
    13:00 +10°C° 0 mm 2 m/S 743 mmHg 74%
    14:00 +10°C° 0 mm 2 m/S 743 mmHg 75%
    15:00 +9°C° 0 mm 2 m/S 743 mmHg 76%
    16:00 +9°C° 0 mm 2 m/S 743 mmHg 77%
    17:00 +9°C° 0 mm 2 m/S 743 mmHg 78%
    18:00 +10°C° 0 mm 1 m/S 744 mmHg 80%
    19:00 +9°C° 0 mm 1 m/S 744 mmHg 81%
    20:00 +9°C° 0 mm 1 m/S 744 mmHg 82%
    21:00 +9°C° 0 mm 1 m/S 744 mmHg 82%
    22:00 +8°C° 0 mm 1 m/S 744 mmHg 83%
    23:00 +8°C° 0 mm 1 m/S 744 mmHg 84%

    25 Oktober, Mittwoch

    Zeit Temperatur Niederschläge Wind Luftdruck Luftfeuchtigkeit
    00:00 +6°C° 0 mm 0 m/S 745 mmHg 86%
    01:00 +6°C° 0 mm 0 m/S 745 mmHg 87%
    02:00 +7°C° 0 mm 1 m/S 744 mmHg 88%
    03:00 +6°C° 0 mm 1 m/S 744 mmHg 89%
    04:00 +6°C° 0 mm 1 m/S 744 mmHg 90%
    05:00 +5°C° 0 mm 2 m/S 744 mmHg 89%
    06:00 +5°C° 0 mm 2 m/S 744 mmHg 89%
    07:00 +5°C° 0 mm 2 m/S 744 mmHg 89%
    08:00 +6°C° 0 mm 2 m/S 744 mmHg 83%
    09:00 +7°C° 0 mm 2 m/S 744 mmHg 78%
    10:00 +9°C° 0 mm 3 m/S 744 mmHg 73%
    11:00 +9°C° 0 mm 2 m/S 743 mmHg 71%
    12:00 +10°C° 0 mm 2 m/S 743 mmHg 69%
    13:00 +12°C° 0 mm 2 m/S 743 mmHg 66%
    14:00 +12°C° 0 mm 2 m/S 743 mmHg 69%
    15:00 +12°C° 0 mm 2 m/S 742 mmHg 72%
    16:00 +12°C° 0 mm 2 m/S 742 mmHg 75%
    17:00 +12°C° 0 mm 2 m/S 742 mmHg 79%
    18:00 +11°C° 0 mm 3 m/S 742 mmHg 82%
    19:00 +10°C° 0 mm 3 m/S 742 mmHg 86%
    20:00 +10°C° 0 mm 3 m/S 742 mmHg 87%
    21:00 +10°C° 0 mm 4 m/S 742 mmHg 88%
    22:00 +10°C° 0 mm 4 m/S 742 mmHg 89%
    23:00 +11°C° 0 mm 4 m/S 742 mmHg 90%

    26 Oktober, Donnerstag

    Zeit Temperatur Niederschläge Wind Luftdruck Luftfeuchtigkeit
    00:00 +11°C° 0 mm 4 m/S 742 mmHg 90%
    01:00 +11°C° 0 mm 4 m/S 742 mmHg 91%
    02:00 +11°C° 0 mm 4 m/S 742 mmHg 91%
    03:00 +11°C° 0 mm 4 m/S 742 mmHg 91%
    04:00 +11°C° 0 mm 4 m/S 742 mmHg 91%
    05:00 +11°C° 0,1 mm 4 m/S 742 mmHg 91%
    06:00 +11°C° 0,1 mm 4 m/S 742 mmHg 90%
    07:00 +11°C° 0,1 mm 4 m/S 742 mmHg 90%
    08:00 +12°C° 0,1 mm 4 m/S 742 mmHg 85%
    09:00 +13°C° 0,1 mm 4 m/S 743 mmHg 81%
    10:00 +13°C° 0,1 mm 5 m/S 743 mmHg 76%
    11:00 +14°C° 0 mm 5 m/S 742 mmHg 72%
    12:00 +14°C° 0 mm 5 m/S 742 mmHg 69%
    13:00 +15°C° 0 mm 5 m/S 742 mmHg 65%
    14:00 +14°C° 0 mm 5 m/S 742 mmHg 67%
    15:00 +13°C° 0 mm 4 m/S 742 mmHg 70%
    16:00 +13°C° 0 mm 3 m/S 741 mmHg 72%
    17:00 +12°C° 0 mm 3 m/S 741 mmHg 75%
    18:00 +11°C° 0 mm 3 m/S 741 mmHg 78%
    19:00 +12°C° 0 mm 2 m/S 741 mmHg 81%
    20:00 +11°C° 0 mm 3 m/S 741 mmHg 82%
    21:00 +11°C° 0 mm 3 m/S 741 mmHg 83%
    22:00 +10°C° 0 mm 3 m/S 741 mmHg 84%
    23:00 +10°C° 0 mm 3 m/S 741 mmHg 86%

    27 Oktober, Freitag

    Zeit Temperatur Niederschläge Wind Luftdruck Luftfeuchtigkeit
    00:00 +10°C° 0 mm 3 m/S 740 mmHg 87%
    01:00 +10°C° 0 mm 4 m/S 740 mmHg 88%
    02:00 +10°C° 0 mm 4 m/S 739 mmHg 89%
    03:00 +10°C° 0 mm 4 m/S 739 mmHg 89%
    04:00 +10°C° 0 mm 4 m/S 739 mmHg 90%
    05:00 +8°C° 0 mm 4 m/S 738 mmHg 90%
    06:00 +8°C° 0 mm 4 m/S 738 mmHg 89%
    07:00 +8°C° 0 mm 4 m/S 738 mmHg 89%
    08:00 +10°C° 0 mm 4 m/S 737 mmHg 84%
    09:00 +10°C° 0 mm 5 m/S 737 mmHg 79%
    10:00 +12°C° 0 mm 5 m/S 737 mmHg 74%
    11:00 +13°C° 0 mm 5 m/S 736 mmHg 72%
    12:00 +13°C° 0 mm 5 m/S 735 mmHg 70%
    13:00 +13°C° 0 mm 6 m/S 734 mmHg 68%
    14:00 +13°C° 0 mm 5 m/S 733 mmHg 70%
    15:00 +13°C° 0 mm 5 m/S 732 mmHg 72%
    16:00 +13°C° 0 mm 5 m/S 731 mmHg 75%
    17:00 +13°C° 0,5 mm 6 m/S 730 mmHg 77%
    18:00 +11°C° 0,5 mm 6 m/S 729 mmHg 78%
    19:00 +11°C° 0,5 mm 7 m/S 728 mmHg 80%
    20:00 +11°C° 1,3 mm 7 m/S 727 mmHg 82%
    21:00 +11°C° 1,3 mm 7 m/S 727 mmHg 83%
    22:00 +11°C° 1,3 mm 7 m/S 726 mmHg 85%
    23:00 +10°C° 0,8 mm 8 m/S 727 mmHg 84%
    Mehr zeigen